Dewpoint
74 73 73 71 71 71 73 70 71 71 71 70 69 67 65 63 61 61 60 61 63 65 68 67 68 70 70 70 71 70 70 72 74 71 72 71 71 71 71 72 72 72 72 72 74 74 75 75 75 76 76 76 76 75 74 73 73 73 73 73 72 72 72 71 70 70 70 71 71 71 72 72 73 73
74 74 73 72 72 73 71 72 72 72 71 70 70 69 68 66 63 63 60 61 64 66 69 67 67 70 70 70 71 71 71 73 73 71 71 71 71 71 71 71 70 70 70 71 72 73 74 75 75 76 76 76 76 76 75 74 74 73 73 73 73 73 72 71 70 70 70 70 70 71 71 71 72 72
73 72 72 72 72 72 72 72 72 72 72 70 70 71 70 69 66 65 62 61 64 68 67 69 70 69 70 71 72 71 72 73 72 72 72 71 73 72 70 69 69 69 70 69 70 71 72 73 73 73 73 74 74 75 75 76 75 75 74 74 73 72 72 71 70 70 70 69 70 70 70 70 70 71
74 72 72 72 73 73 72 71 71 71 71 72 72 72 71 70 69 67 64 63 64 69 70 70 71 72 72 73 71 71 71 71 73 72 71 71 72 69 68 69 69 69 69 70 69 69 69 69 69 71 72 72 73 74 75 75 76 75 75 75 74 72 70 70 70 70 69 69 69 69 69 70 70 70
74 74 72 72 73 73 72 71 71 71 71 72 71 71 70 71 70 68 66 64 66 69 70 72 72 73 73 71 72 70 70 71 72 72 71 70 69 69 69 69 69 68 68 69 69 69 68 68 68 69 70 71 72 73 74 74 73 74 74 74 72 71 70 70 70 70 69 69 69 70 70 70 69 69
74 73 72 73 74 74 73 72 72 71 71 70 70 71 70 69 71 71 68 67 67 66 69 70 72 72 74 70 72 71 71 71 73 70 70 70 70 71 71 70 70 69 69 68 68 68 68 67 67 68 69 70 71 71 71 71 70 71 72 72 70 70 70 70 70 70 69 69 69 69 70 70 69 69
72 72 72 73 73 74 73 72 72 72 71 72 70 70 72 70 71 72 71 70 68 67 68 69 71 71 71 70 70 71 72 72 71 70 70 70 72 73 72 71 70 70 70 69 68 68 67 67 67 67 67 68 68 68 68 68 67 68 68 67 68 69 70 69 69 69 69 69 69 69 69 69 69 70
72 72 71 72 72 73 72 72 71 71 72 71 71 71 72 70 69 70 72 70 68 68 68 68 69 70 70 70 72 72 71 69 70 70 70 71 72 73 72 72 71 71 70 69 69 68 68 68 68 67 67 67 66 65 65 65 64 64 65 65 66 66 67 66 67 68 68 68 67 68 69 68 68 68
73 73 72 72 72 72 71 72 71 71 71 72 72 72 71 72 72 74 73 72 71 69 69 69 68 70 70 71 71 71 70 70 70 71 71 71 72 72 72 72 71 71 71 71 70 69 69 69 68 68 67 66 66 65 65 64 64 63 63 61 62 63 64 64 65 66 66 66 66 66 67 68 68 67
74 74 73 73 73 72 72 72 71 71 71 72 72 72 72 72 72 72 72 71 71 69 69 68 69 68 69 68 68 69 71 70 70 70 70 70 71 72 71 71 71 72 72 73 73 71 70 69 68 68 67 67 67 66 66 65 64 63 62 60 60 62 61 62 63 63 63 64 64 64 65 66 67 67
74 74 74 73 73 72 72 72 72 71 72 72 71 72 71 72 71 71 71 72 71 71 69 68 68 68 69 68 67 69 70 70 70 69 70 69 70 71 71 71 71 72 73 72 71 71 71 71 70 67 67 68 67 66 66 66 66 65 63 60 60 61 60 60 60 60 61 63 62 63 62 62 64 66
73 73 72 72 72 72 71 71 71 71 71 71 70 71 71 72 71 71 71 70 70 69 68 67 67 67 66 67 67 69 68 69 68 70 70 68 69 70 71 71 71 72 73 72 72 71 71 71 71 70 70 69 68 67 68 68 68 66 63 62 64 63 62 60 59 59 59 60 60 61 61 61 62 63
71 71 71 71 72 73 75 76 76 73 73 71 69 70 73 73 72 71 71 70 67 67 66 65 65 65 65 65 65 67 66 68 68 69 70 68 69 70 70 70 71 72 72 72 72 72 72 72 71 72 71 72 71 70 69 69 69 66 64 63 63 63 62 61 60 59 59 59 59 59 60 60 60 60
71 71 71 71 75 75 75 75 76 78 78 77 71 70 73 73 72 71 70 68 67 66 65 64 64 64 65 65 66 67 67 68 69 70 69 69 69 69 68 69 69 72 72 72 72 72 72 72 71 71 70 71 72 71 71 68 67 65 64 64 64 63 62 61 61 60 59 58 58 58 58 59 59 59
70 70 70 70 72 75 77 76 77 78 79 80 79 77 76 76 72 71 69 68 67 67 66 64 65 65 66 67 67 68 69 70 70 69 69 69 69 68 68 68 70 72 73 71 71 71 72 72 71 70 70 71 71 71 70 66 65 65 65 64 64 63 63 63 62 61 60 59 59 58 57 57 58 58
71 71 70 70 70 71 73 73 72 74 77 79 79 78 78 78 77 74 71 69 67 66 65 65 66 66 66 66 67 68 70 69 69 69 69 68 68 68 67 67 68 71 73 71 70 71 72 72 71 70 70 71 71 71 67 65 64 64 64 63 62 62 62 63 63 62 61 61 61 61 60 59 59 58
70 70 71 71 70 69 75 77 71 72 74 78 78 78 78 78 77 71 70 72 69 68 67 66 65 67 66 66 68 70 71 70 69 68 67 67 68 68 68 68 68 71 72 71 68 68 70 71 71 70 70 71 71 72 68 66 65 64 64 62 61 61 62 62 62 63 63 62 60 59 59 59 59 59
70 70 70 71 71 71 71 69 69 71 73 74 75 75 74 74 75 75 72 71 73 72 68 67 66 68 69 69 69 72 71 70 69 68 67 67 68 68 68 69 70 71 73 71 69 67 68 70 70 69 70 71 71 71 67 65 65 64 63 62 61 60 61 61 61 61 61 62 60 59 58 57 57 57
70 69 70 71 71 70 68 67 69 70 72 73 74 73 72 72 73 73 74 74 73 72 72 69 69 69 70 70 70 71 71 71 71 70 69 69 69 69 69 69 69 70 71 70 67 65 67 68 69 69 70 71 71 71 68 65 65 64 63 63 61 60 60 61 61 62 61 61 60 58 57 57 57 56
70 70 71 71 71 69 66 67 64 68 71 73 73 72 72 69 67 68 71 66 71 74 72 71 71 71 71 70 70 69 67 67 69 71 71 70 70 68 67 66 68 68 70 69 65 64 65 67 68 68 70 70 70 70 70 67 66 65 64 63 61 60 59 60 59 61 62 61 59 58 58 56 55 56
71 71 71 71 69 67 65 64 59 62 71 72 73 73 71 67 62 62 65 65 64 64 63 62 63 63 62 62 62 61 60 64 66 68 67 67 68 66 65 66 66 67 69 69 66 64 64 65 67 68 69 69 69 69 69 70 66 64 63 61 60 59 59 58 57 58 60 61 60 58 58 57 57 58
71 71 75 73 67 64 63 59 58 62 70 70 70 70 68 64 61 62 64 67 65 65 65 65 65 65 66 66 68 65 62 61 67 67 65 68 70 67 66 66 65 67 67 68 66 63 62 65 66 66 67 67 68 70 69 70 66 63 62 60 59 59 59 57 55 56 56 59 60 59 58 57 60 64
69 70 73 71 67 64 62 56 57 60 69 68 68 69 68 67 63 61 64 64 62 63 64 65 69 69 70 69 70 71 67 68 71 69 70 70 69 68 67 67 66 65 65 67 66 63 62 65 65 66 66 64 64 68 68 68 63 62 63 62 59 58 59 57 55 53 54 54 56 57 57 57 59 63
65 65 64 64 59 57 55 54 54 55 59 65 67 67 67 66 65 64 63 67 63 63 65 65 67 68 68 68 68 68 69 70 71 69 69 69 68 67 66 67 65 63 63 62 66 63 63 63 63 66 67 65 64 66 66 66 60 60 60 60 57 58 59 58 56 54 53 53 53 54 53 53 56 60
64 63 62 62 59 54 54 52 51 52 55 62 67 66 65 65 66 64 60 65 65 64 65 67 68 68 68 68 68 68 68 68 67 67 67 67 66 65 64 62 62 60 59 59 64 63 61 60 60 61 60 65 64 62 63 63 58 58 61 59 56 55 56 56 57 55 54 54 53 52 53 53 54 56
64 63 64 64 60 54 53 52 50 50 52 57 67 63 56 57 62 66 65 63 63 64 66 67 67 67 66 67 67 67 66 66 66 63 62 63 65 65 64 62 59 56 56 58 61 58 59 55 59 59 58 59 60 59 58 58 58 55 57 57 58 54 54 54 55 55 55 56 56 54 54 53 54 54
66 66 65 64 59 53 50 49 49 50 52 60 59 53 55 57 58 63 63 64 63 64 65 66 66 65 64 64 63 63 62 62 62 60 61 61 62 65 63 60 57 56 57 56 58 57 55 54 58 58 56 57 57 55 55 55 54 55 55 55 57 53 53 53 54 56 56 56 56 54 54 54 55 54
64 63 63 60 52 50 49 49 51 53 58 58 52 53 56 57 61 63 63 61 63 67 66 65 63 63 62 60 60 61 62 61 60 60 60 60 60 60 60 61 61 58 55 54 54 54 55 54 55 57 57 54 54 53 53 55 56 54 54 54 56 55 52 53 53 57 57 56 55 55 56 56 57 55
61 58 54 54 54 54 53 54 57 58 59 57 57 53 54 62 62 62 62 62 64 65 65 64 63 62 62 60 61 60 61 63 61 62 60 61 61 59 58 58 58 55 53 54 54 53 54 54 54 55 55 55 55 55 54 53 53 53 54 52 51 56 52 52 53 53 56 55 54 54 54 56 55 54
57 56 56 56 56 58 59 64 65 64 62 57 60 60 59 61 62 62 62 63 64 64 63 63 61 60 60 59 60 61 59 59 60 61 60 59 60 59 58 56 54 53 51 53 54 53 53 54 55 55 55 56 56 54 53 51 50 51 53 52 51 57 53 52 52 52 55 54 53 54 54 56 55 54
59 59 58 56 53 54 58 60 60 60 60 60 60 61 63 62 61 63 62 63 64 63 61 61 60 60 60 60 60 58 58 59 59 61 60 58 58 59 56 53 53 52 52 52 53 53 52 53 54 54 53 54 54 54 54 52 49 49 50 52 51 49 50 50 51 51 52 53 52 51 52 53 52 57
57 58 56 57 58 60 63 61 61 61 62 63 63 62 62 62 63 63 66 65 61 60 60 59 59 59 58 57 57 57 56 56 57 58 58 57 55 55 54 52 51 52 51 51 51 52 54 52 53 52 53 53 51 50 51 49 48 49 49 51 52 51 50 49 49 49 51 52 49 49 49 50 49 49
58 59 59 58 58 60 63 63 63 61 58 58 58 59 58 58 58 59 58 58 58 58 57 56 56 56 56 57 58 55 55 54 54 55 55 55 53 52 51 51 51 51 50 49 51 51 50 49 53 53 52 52 52 50 48 46 47 48 48 49 50 49 48 48 49 49 50 49 48 48 47 48 48 49
56 58 59 59 60 61 61 61 59 57 56 56 55 56 57 56 55 56 57 56 56 56 56 56 55 56 56 56 55 53 52 51 51 52 53 52 53 51 50 50 50 51 51 49 49 49 50 49 49 48 49 51 51 50 50 47 47 48 49 49 48 47 48 49 48 48 49 48 48 46 46 46 47 48
56 56 56 56 57 58 58 58 57 56 55 55 54 54 56 57 56 56 55 55 55 55 55 55 55 54 54 53 52 51 51 50 49 49 51 51 51 51 50 49 50 50 49 49 47 48 49 48 47 46 45 45 45 45 51 49 47 46 46 46 47 47 47 48 49 47 48 47 47 46 45 45 46 47
54 54 54 54 54 55 55 56 56 54 53 53 53 52 53 53 54 53 53 53 52 52 52 52 53 52 52 51 50 50 49 49 48 49 49 49 50 50 50 50 49 49 48 48 48 47 49 47 46 45 43 43 42 41 43 48 50 47 45 45 46 47 47 47 48 47 46 46 47 45 44 44 45 47
53 53 53 53 53 53 53 53 53 53 53 53 53 53 53 53 52 52 52 51 51 51 51 50 50 50 49 49 49 49 48 48 47 48 47 48 49 49 47 48 48 48 47 47 47 47 47 47 46 44 42 42 41 41 42 44 47 50 47 45 46 46 47 47 46 45 45 46 46 45 44 45 45 45
52 52 52 53 52 53 53 52 53 53 53 54 53 52 52 51 51 50 50 49 49 48 48 47 48 48 48 48 46 46 46 47 47 47 48 47 47 47 47 46 46 47 47 46 47 47 46 47 46 46 44 42 41 41 41 44 45 46 48 47 46 46 48 46 45 44 45 46 45 45 46 45 44 45
52 52 52 51 52 52 52 52 53 52 52 52 52 51 50 50 49 49 48 47 46 46 45 46 47 47 47 46 47 47 46 45 45 47 47 47 47 46 46 46 45 45 46 44 45 45 46 45 45 45 44 43 42 42 44 44 45 47 47 47 46 46 46 46 45 45 45 44 44 45 46 47 47 50
53 53 53 52 52 51 50 50 50 51 52 52 51 50 50 49 48 47 46 46 45 46 45 46 45 45 45 46 45 44 45 46 46 45 46 46 46 46 46 45 45 45 45 44 44 44 43 43 46 46 46 45 45 46 46 47 47 48 48 47 46 47 46 46 45 45 45 44 44 43 42 43 42 44
50 49 49 50 49 49 47 47 47 49 49 50 51 50 49 47 46 45 45 45 46 44 43 43 43 43 43 44 45 44 43 44 45 45 45 45 46 45 45 44 43 44 43 42 43 43 43 43 47 46 47 46 46 47 46 44 43 43 44 45 46 47 47 48 47 46 45 46 44 43 42 42 42 43
48 48 47 47 47 47 46 46 46 46 46 46 46 46 47 48 48 48 47 47 45 44 42 42 42 45 43 43 43 45 43 43 43 44 44 43 43 44 45 44 42 43 43 42 42 42 44 44 47 47 45 45 44 43 42 43 42 43 43 45 45 46 46 47 48 49 47 46 44 43 43 43 44 43
48 46 46 49 47 47 46 46 45 45 45 44 43 43 42 42 42 42 41 41 42 43 41 41 41 41 41 42 43 43 42 42 42 42 42 43 43 42 42 43 43 42 43 42 42 43 44 44 43 44 43 42 43 43 42 43 43 44 43 44 44 45 45 47 47 48 48 48 49 47 46 45 44 42
46 46 45 45 44 44 45 45 45 45 44 43 43 42 42 41 41 41 41 41 40 40 41 41 41 40 40 41 44 42 43 42 41 42 42 42 43 43 42 43 43 42 42 42 42 42 43 43 43 44 42 42 43 42 44 44 44 46 44 44 45 44 44 45 46 46 47 47 48 48 48 49 50 49
45 44 43 43 44 44 44 45 45 44 44 44 43 43 44 42 43 41 41 41 40 40 41 40 40 40 40 42 41 41 42 43 42 43 42 42 41 42 42 42 42 41 41 41 40 41 42 42 42 42 41 43 44 43 44 45 45 45 45 44 44 44 44 46 44 44 44 44 46 48 48 49 49 50